Weather History for KBRD - November, 2011

Change the Weather History Date:

Thursday, November 17, 2011

  Actual Average Record
Temperature  
Mean Temperature 22 °F -  
Max Temperature 28 °F 37 °F 66 °F (2001)
Min Temperature 17 °F 18 °F -7 °F (1959)
Degree Days  
Heating Degree Days 43    
Moisture  
Dew Point 9 °F    
Average Humidity 58    
Maximum Humidity 74    
Minimum Humidity 39    
Precipitation  
Precipitation 0.00 in - - ()
Sea Level Pressure  
Sea Level Pressure 30.08 in    
Wind  
Wind Speed 8 mph (WSW)    
Max Wind Speed 10 mph    
Max Gust Speed 18 mph    
Visibility 10 miles    
Events      
Averages and records for this station are not official NWS values.
T = Trace of Precipitation, MM = Missing Value Source: NWS Daily Summary

Daily Weather History Graph

Daily Weather History Graph

Search for Another Location

Airport or City:

Trip Planner

Search our weather history database for the weather conditions in past years. The results will help you decide how hot, cold, wet, or windy it might be!

Date:

Astronomy

Nov. 17, 2011 Rise Set
Actual Time 7:20 AM CST 4:41 PM CST
Civil Twilight 6:47 AM CST 5:14 PM CST
Nautical Twilight 6:11 AM CST 5:51 PM CST
Astronomical Twilight 5:35 AM CST 6:26 PM CST
Moon 11:10 PM CST (11/17) 12:23 PM CST (11/17)
Length of Visible Light 10h 26m
Length of Day
9h 21m
Waning Gibbous, 59% of the Moon is Illuminated
Nov 17
Waning Gibbous
Nov 18
Last Quarter
Nov 25
New
Dec 2
First Quarter
Dec 10
Full

Hourly Weather History & Observations

Time (CST) Temp. Windchill Dew Point Humidity Pressure Visibility Wind Dir Wind Speed Gust Speed Precip Events Conditions
12:53 AM 21.0 °F 10.6 °F 10.9 °F 65% 30.14 in 10.0 mi West 9.2 mph - N/A   Overcast
1:53 AM 19.9 °F 10.1 °F 10.9 °F 68% 30.14 in 10.0 mi West 8.1 mph - N/A   Mostly Cloudy
2:53 AM 19.0 °F 9.0 °F 10.0 °F 68% 30.15 in 10.0 mi WNW 8.1 mph - N/A   Overcast
3:04 AM 17.6 °F 7.3 °F 10.4 °F 73% 30.08 in 10.0 mi WNW 8.1 mph 18.4 mph N/A   Mostly Cloudy
3:12 AM 17.6 °F 5.7 °F 10.4 °F 73% 30.08 in 10.0 mi West 10.4 mph - N/A   Mostly Cloudy
3:53 AM 18.0 °F 6.1 °F 10.0 °F 71% 30.15 in 10.0 mi WNW 10.4 mph 17.3 mph N/A   Scattered Clouds
4:13 AM 17.6 °F 9.3 °F 10.4 °F 73% 30.08 in 10.0 mi West 5.8 mph - N/A   Mostly Cloudy
4:53 AM 17.1 °F 8.7 °F 10.0 °F 74% 30.15 in 10.0 mi West 5.8 mph - N/A   Overcast
5:53 AM 18.0 °F 6.9 °F 10.0 °F 71% 30.17 in 10.0 mi WNW 9.2 mph - N/A   Overcast
6:13 AM 17.6 °F 7.3 °F 10.4 °F 73% 30.10 in 10.0 mi West 8.1 mph - N/A   Overcast
6:29 AM 17.6 °F 8.2 °F 10.4 °F 73% 30.10 in 10.0 mi West 6.9 mph - N/A   Overcast
6:53 AM 18.0 °F 9.8 °F 10.0 °F 71% 30.17 in 10.0 mi WSW 5.8 mph - N/A   Overcast
7:53 AM 18.0 °F 8.7 °F 10.0 °F 71% 30.17 in 10.0 mi West 6.9 mph - N/A   Overcast
9:18 AM 19.4 °F 7.9 °F 8.6 °F 63% 30.11 in 10.0 mi NW 10.4 mph - N/A   Scattered Clouds
9:53 AM 21.0 °F 10.6 °F 7.0 °F 55% 30.19 in 10.0 mi WNW 9.2 mph - N/A   Clear
11:53 AM 25.0 °F 18.1 °F 7.0 °F 46% 30.15 in 10.0 mi WNW 5.8 mph - N/A   Clear
12:53 PM 26.1 °F 16.8 °F 6.1 °F 43% 30.12 in 10.0 mi WSW 9.2 mph - N/A   Clear
1:53 PM 27.0 °F 18.0 °F 6.1 °F 41% 30.10 in 10.0 mi West 9.2 mph - N/A   Clear
2:53 PM 27.0 °F 18.7 °F 5.0 °F 39% 30.09 in 10.0 mi SW 8.1 mph - N/A   Clear
3:53 PM 27.0 °F 20.5 °F 5.0 °F 39% 30.08 in 10.0 mi SSW 5.8 mph - N/A   Clear
4:53 PM 24.1 °F 19.7 °F 5.0 °F 44% 30.06 in 10.0 mi SE 3.5 mph - N/A   Clear
5:53 PM 23.0 °F 17.0 °F 7.0 °F 50% 30.04 in 10.0 mi SE 4.6 mph - N/A   Partly Cloudy
6:53 PM 23.0 °F 18.4 °F 8.1 °F 53% 30.03 in 10.0 mi South 3.5 mph - N/A   Scattered Clouds
7:53 PM 25.0 °F 16.3 °F 8.1 °F 49% 30.01 in 10.0 mi SE 8.1 mph - N/A   Overcast
8:53 PM 25.0 °F 16.3 °F 8.1 °F 49% 30.00 in 10.0 mi SSE 8.1 mph - N/A   Overcast
9:53 PM 26.1 °F 19.4 °F 8.1 °F 47% 29.94 in 10.0 mi SE 5.8 mph - N/A   Overcast
10:53 PM 26.1 °F 17.6 °F 8.1 °F 47% 29.87 in 10.0 mi SE 8.1 mph - N/A   Overcast
11:53 PM 28.0 °F 20.8 °F 9.0 °F 45% 29.82 in 10.0 mi ESE 6.9 mph - N/A   Mostly Cloudy